{"data":{"norad_id":57208,"intl_designator":"2023-091AU","name":"SITRO-AIS 11 (SHEFFER)","alt_names":[],"object_type":"PAYLOAD","status":"ACTIVE","operator":null,"country":"CIS","launch_date":"2023-06-27","launch_site_code":"VOSTO","launch_vehicle":null,"mission":null,"orbit_class":"UNKNOWN","rcs_meters":null,"size_class":null,"mass_kg":null,"dimensions":null,"purposes":["tech_demo"],"wikipedia_slug":null,"has_3d_model":false,"image_url":null,"decayed_at":null,"tle_current":{"epoch":"2026-05-25T04:31:13.312992Z","epoch_age_seconds":69250,"freshness":"FRESH","line1":"1 57208U 23091AU  26145.18834853  .00019719  00000+0  53140-3 0  9997","line2":"2 57208  97.5100 215.6296 0007811 142.3574 217.8218 15.37833680161258","mean_motion":15.3783368,"eccentricity":0.0007811,"inclination_deg":97.51,"raan_deg":215.6296,"arg_perigee_deg":142.3574,"mean_anomaly_deg":217.8218,"bstar":0.0005314,"rev_number":16125,"period_min":93.638214504445,"perigee_km":447.18119009424,"apogee_km":457.85203716945,"semimajor_km":6830.6536136318,"source":"CELESTRAK","updated_at":"2026-05-25T13:38:25.534149Z"}}}